Location: Unspecified
(43.4680°N, 87.1740°E)
Time: 10:11:57
(UTC+00:00)

Cosmos 1470 - Pass Details

Date: 17 January 2020
Orbit: 521 x 543 km, 82.5° (Epoch: 18 February)

Event Time Altitude Azimuth Distance (km) Brightness Sun altitude
Rises 23:30:23 0° 187° (S) 2,682 6.3 -23.1°
Reaches altitude 10° 23:32:31 10° 188° (S) 1,798 5.4 -22.8°
Maximum altitude 23:36:29 87° 277° (W) 550 2.6 -22.0°
Drops below altitude 10° 23:40:30 10° 8° (N) 1,819 5.4 -21.3°
Sets 23:42:40 0° 8° (N) 2,717 6.4 -20.9°
